Regional Weather Roundup
Issued by NWS

Home | Current Version | Previous Version | Graphics & Text | Print | Product List | Glossary On
Versions: 1 2 3 4 5 6 7 8 9 10 11 12 13 14 15 16 17 18 19 20 21 22 23 24 25 26 27 28 29 30 31 32 33 34 35 36 37 38 39 40 41 42 43 44 45 46 47 48 49 50
000
ASUS44 KMEG 080500
RWRTN
TENNESSEE HOURLY STATE WEATHER ROUNDUP
NATIONAL WEATHER SERVICE MEMPHIS TN
1100 PM CST SUN FEB 07 2016

TNZ002-004-019-021-049-052-054-088>092-080600-
WEST TENNESSEE

CITY           SKY/WX    TMP DP  RH WIND       PRES   REMARKS
MEMPHIS INTL   MOCLDY    50  31  48 W8        29.98S
NWS MEMPHIS      N/A     50 N/A N/A MISG        N/A
JACKSON        MOCLDY    47  31  53 W12       29.93F
DYERSBURG      CLOUDY    46  30  53 W9        29.95S
PARIS          MOCLDY    45  30  57 W8        29.89S
$$

TNZ008-025-027-028-033-062-065-066-080600-
NORTH MIDDLE TENNESSEE

CITY           SKY/WX    TMP DP  RH WIND       PRES   REMARKS
NASHVILLE      CLOUDY    47  22  37 SW8       29.89F
CLARKSVILLE    CLOUDY    48  29  47 SW8       29.86F
COOKEVILLE     CLEAR     34  25  69 SW5       29.88F WCI  30
CROSSVILLE     PTCLDY    41  19  41 SW6       29.90F
$$

TNZ061-075-076-078-094-096-097-080600-
SOUTH MIDDLE TENNESSEE

CITY           SKY/WX    TMP DP  RH WIND       PRES   REMARKS
TULLAHOMA      CLEAR     36  19  51 SW6       29.93F WCI  31
MCMINNVILLE    CLEAR     41  21  45 S6        29.91F
SHELBYVILLE    CLEAR     43  27  52 SW6       29.93F
$$

TNZ017-018-042-046-047-080600-
NORTHEAST TENNESSEE

CITY           SKY/WX    TMP DP  RH WIND       PRES   REMARKS
TRI CITIES     PTCLDY    29  24  82 CALM      29.90F
$$

TNZ012-013-036-069-073-074-080600-
CENTRAL EAST TENNESSEE

CITY           SKY/WX    TMP DP  RH WIND       PRES   REMARKS
KNOXVILLE      CLOUDY    39  25  57 S5        29.92F
OAK RIDGE      CLOUDY    36  28  73 CALM      29.92F
GATLINBURG     CLEAR     28  23  80 CALM      29.92F
$$

TNZ083-085-099-080600-
SOUTHEAST TENNESSEE

CITY           SKY/WX    TMP DP  RH WIND       PRES   REMARKS
CHATTANOOGA    PTCLDY    43  23  45 S7        29.95F
$$

SKY/WX REPORTED AS FAIR MEANS FEW OR NO CLOUDS BELOW
12 THOUSAND FEET.




USA.gov is the U.S. government's official web portal to all federal, state and local government web resources and services.